When you browse on this site, cookies collect data to enhance your experience and personalize the content and advertising you see.
Visit our Privacy Policy to learn more. By continuing to use the site, you agree to this use of cookies and data.
  • In Romania
  • List of Countries
  • For 7 days
  • Water Temperature
  • Satellite Maps
  • Weather Map
  • Weather Widgets
  • user-avatar
    Login

    Hourly Weather Da Nang

    Today, 16 February, Saturday

    Time Temperature Precipitation Wind Pressure Humidity
    00:00 +23°C° 0 mm 2 mps 761 mmHg 97%
    01:00 +23°C° 0 mm 2 mps 761 mmHg 97%
    02:00 +21°C° 0 mm 2 mps 761 mmHg 97%
    03:00 +21°C° 0 mm 2 mps 761 mmHg 97%
    04:00 +21°C° 0 mm 2 mps 761 mmHg 97%
    05:00 +21°C° 0 mm 2 mps 761 mmHg 95%
    06:00 +21°C° 0 mm 2 mps 761 mmHg 94%
    07:00 +23°C° 0 mm 2 mps 761 mmHg 92%
    08:00 +26°C° 0 mm 2 mps 761 mmHg 79%
    09:00 +29°C° 0 mm 2 mps 761 mmHg 67%
    10:00 +32°C° 0 mm 2 mps 761 mmHg 55%
    11:00 +32°C° 0 mm 2 mps 760 mmHg 52%
    12:00 +34°C° 0 mm 3 mps 760 mmHg 50%
    13:00 +34°C° 0 mm 3 mps 759 mmHg 48%
    14:00 +34°C° 0 mm 3 mps 759 mmHg 53%
    15:00 +33°C° 0 mm 3 mps 759 mmHg 58%
    16:00 +32°C° 0 mm 4 mps 758 mmHg 64%
    17:00 +29°C° 0 mm 3 mps 758 mmHg 75%
    18:00 +27°C° 0 mm 3 mps 759 mmHg 85%
    19:00 +25°C° 0 mm 3 mps 759 mmHg 96%
    20:00 +25°C° 0 mm 3 mps 759 mmHg 97%
    21:00 +25°C° 0 mm 2 mps 759 mmHg 97%
    22:00 +24°C° 0 mm 2 mps 760 mmHg 97%
    23:00 +24°C° 0 mm 2 mps 759 mmHg 97%

    Tomorrow, 17 February, Sunday

    Time Temperature Precipitation Wind Pressure Humidity
    00:00 +24°C° 0 mm 2 mps 759 mmHg 97%
    01:00 +24°C° 0 mm 2 mps 759 mmHg 97%
    02:00 +24°C° 0 mm 2 mps 759 mmHg 97%
    03:00 +23°C° 0 mm 2 mps 759 mmHg 97%
    04:00 +23°C° 0 mm 2 mps 758 mmHg 98%
    05:00 +23°C° 0 mm 2 mps 759 mmHg 96%
    06:00 +23°C° 0 mm 2 mps 759 mmHg 94%
    07:00 +23°C° 0 mm 2 mps 759 mmHg 92%
    08:00 +26°C° 0 mm 2 mps 759 mmHg 80%
    09:00 +29°C° 0 mm 2 mps 759 mmHg 68%
    10:00 +32°C° 0 mm 2 mps 760 mmHg 56%
    11:00 +33°C° 0 mm 3 mps 759 mmHg 55%
    12:00 +34°C° 0 mm 4 mps 758 mmHg 54%
    13:00 +35°C° 0 mm 4 mps 758 mmHg 52%
    14:00 +33°C° 0.5 mm 4 mps 757 mmHg 61%
    15:00 +32°C° 0.5 mm 5 mps 756 mmHg 70%
    16:00 +30°C° 0.5 mm 5 mps 756 mmHg 78%
    17:00 +28°C° 0.5 mm 4 mps 756 mmHg 83%
    18:00 +27°C° 0.5 mm 4 mps 757 mmHg 88%
    19:00 +26°C° 0.5 mm 3 mps 757 mmHg 94%
    20:00 +25°C° 0 mm 3 mps 757 mmHg 94%
    21:00 +25°C° 0 mm 3 mps 758 mmHg 95%
    22:00 +25°C° 0 mm 3 mps 758 mmHg 96%
    23:00 +25°C° 0 mm 3 mps 758 mmHg 96%

    Day after tomorrow, 18 February, Monday

    Time Temperature Precipitation Wind Pressure Humidity
    00:00 +25°C° 0 mm 3 mps 758 mmHg 96%
    01:00 +25°C° 0 mm 3 mps 757 mmHg 96%
    02:00 +25°C° 0 mm 3 mps 757 mmHg 96%
    03:00 +25°C° 0 mm 3 mps 757 mmHg 96%
    04:00 +25°C° 0 mm 3 mps 757 mmHg 96%
    05:00 +25°C° 0 mm 3 mps 757 mmHg 95%
    06:00 +24°C° 0 mm 3 mps 758 mmHg 94%
    07:00 +24°C° 0 mm 2 mps 758 mmHg 93%
    08:00 +27°C° 0 mm 2 mps 758 mmHg 80%
    09:00 +30°C° 0 mm 2 mps 758 mmHg 66%
    10:00 +34°C° 0 mm 2 mps 759 mmHg 52%
    11:00 +34°C° 0 mm 3 mps 758 mmHg 52%
    12:00 +35°C° 0 mm 3 mps 757 mmHg 51%
    13:00 +36°C° 0 mm 4 mps 756 mmHg 50%
    14:00 +34°C° 1.3 mm 4 mps 756 mmHg 62%
    15:00 +32°C° 1.3 mm 4 mps 756 mmHg 73%
    16:00 +29°C° 1.3 mm 4 mps 755 mmHg 84%
    17:00 +28°C° 1.4 mm 3 mps 756 mmHg 88%
    18:00 +27°C° 1.4 mm 3 mps 757 mmHg 92%
    19:00 +26°C° 1.4 mm 3 mps 757 mmHg 95%
    20:00 +26°C° 0.7 mm 3 mps 758 mmHg 95%
    21:00 +25°C° 0.7 mm 2 mps 758 mmHg 96%
    22:00 +25°C° 0.7 mm 2 mps 759 mmHg 96%
    23:00 +25°C° 0 mm 2 mps 758 mmHg 96%

    19 February, Tuesday

    Time Temperature Precipitation Wind Pressure Humidity
    00:00 +25°C° 0 mm 2 mps 758 mmHg 96%
    01:00 +24°C° 0 mm 2 mps 758 mmHg 96%
    02:00 +24°C° 0 mm 2 mps 758 mmHg 95%
    03:00 +24°C° 0 mm 2 mps 757 mmHg 95%
    04:00 +24°C° 0 mm 2 mps 757 mmHg 94%
    05:00 +24°C° 0 mm 2 mps 758 mmHg 93%
    06:00 +24°C° 0 mm 2 mps 758 mmHg 92%
    07:00 +24°C° 0 mm 2 mps 759 mmHg 90%
    08:00 +27°C° 0 mm 2 mps 759 mmHg 77%
    09:00 +31°C° 0 mm 2 mps 759 mmHg 64%
    10:00 +35°C° 0 mm 2 mps 760 mmHg 51%
    11:00 +36°C° 0 mm 2 mps 759 mmHg 50%
    12:00 +36°C° 0 mm 3 mps 758 mmHg 48%
    13:00 +37°C° 0 mm 3 mps 757 mmHg 47%
    14:00 +35°C° 0.3 mm 3 mps 757 mmHg 58%
    15:00 +33°C° 0.3 mm 4 mps 757 mmHg 69%
    16:00 +30°C° 0.3 mm 4 mps 756 mmHg 81%
    17:00 +29°C° 0.4 mm 4 mps 757 mmHg 85%
    18:00 +28°C° 0.4 mm 3 mps 758 mmHg 90%
    19:00 +27°C° 0.4 mm 3 mps 758 mmHg 95%
    20:00 +26°C° 0.4 mm 3 mps 759 mmHg 95%
    21:00 +26°C° 0.4 mm 3 mps 760 mmHg 96%
    22:00 +26°C° 0.4 mm 2 mps 760 mmHg 96%
    23:00 +26°C° 0 mm 2 mps 760 mmHg 96%

    20 February, Wednesday

    Time Temperature Precipitation Wind Pressure Humidity
    00:00 +25°C° 0 mm 2 mps 760 mmHg 96%
    01:00 +25°C° 0 mm 2 mps 759 mmHg 95%
    02:00 +25°C° 0 mm 2 mps 759 mmHg 95%
    03:00 +25°C° 0 mm 2 mps 759 mmHg 94%
    04:00 +25°C° 0 mm 2 mps 759 mmHg 93%
    05:00 +25°C° 0 mm 2 mps 759 mmHg 92%
    06:00 +25°C° 0 mm 2 mps 760 mmHg 90%
    07:00 +25°C° 0 mm 2 mps 760 mmHg 89%
    08:00 +28°C° 0 mm 2 mps 761 mmHg 79%
    09:00 +30°C° 0 mm 2 mps 761 mmHg 69%
    10:00 +34°C° 0 mm 2 mps 761 mmHg 59%
    11:00 +34°C° 0.6 mm 3 mps 760 mmHg 64%
    12:00 +34°C° 0.6 mm 3 mps 759 mmHg 68%
    13:00 +34°C° 0.6 mm 4 mps 758 mmHg 73%
    14:00 +33°C° 1.3 mm 4 mps 758 mmHg 77%
    15:00 +32°C° 1.3 mm 4 mps 758 mmHg 80%
    16:00 +30°C° 1.3 mm 4 mps 757 mmHg 84%
    17:00 +29°C° 0.7 mm 4 mps 758 mmHg 88%
    18:00 +28°C° 0.7 mm 3 mps 759 mmHg 91%
    19:00 +26°C° 0.7 mm 3 mps 759 mmHg 95%
    20:00 +26°C° 0 mm 3 mps 760 mmHg 96%
    21:00 +26°C° 0 mm 3 mps 760 mmHg 96%
    22:00 +26°C° 0 mm 3 mps 760 mmHg 97%
    23:00 +26°C° 0 mm 3 mps 760 mmHg 97%

    21 February, Thursday

    Time Temperature Precipitation Wind Pressure Humidity
    00:00 +25°C° 0 mm 3 mps 760 mmHg 97%
    01:00 +25°C° 0 mm 2 mps 759 mmHg 97%
    02:00 +25°C° 0 mm 2 mps 759 mmHg 97%
    03:00 +25°C° 0 mm 2 mps 759 mmHg 97%
    04:00 +25°C° 0 mm 2 mps 759 mmHg 96%
    05:00 +25°C° 0 mm 2 mps 759 mmHg 95%
    06:00 +25°C° 0 mm 2 mps 760 mmHg 94%
    07:00 +25°C° 0 mm 2 mps 760 mmHg 93%
    08:00 +28°C° 0 mm 2 mps 760 mmHg 82%
    09:00 +30°C° 0 mm 2 mps 760 mmHg 71%
    10:00 +34°C° 0 mm 3 mps 761 mmHg 60%
    11:00 +34°C° 0 mm 3 mps 760 mmHg 58%
    12:00 +35°C° 0 mm 4 mps 759 mmHg 56%
    13:00 +36°C° 0 mm 4 mps 758 mmHg 54%
    14:00 +34°C° 0.5 mm 4 mps 758 mmHg 62%
    15:00 +33°C° 0.5 mm 4 mps 758 mmHg 70%
    16:00 +32°C° 0.5 mm 4 mps 757 mmHg 78%
    17:00 +29°C° 0.2 mm 4 mps 758 mmHg 83%
    18:00 +28°C° 0.2 mm 4 mps 758 mmHg 87%
    19:00 +27°C° 0.2 mm 3 mps 758 mmHg 92%
    20:00 +26°C° 0 mm 3 mps 759 mmHg 93%
    21:00 +26°C° 0 mm 3 mps 759 mmHg 94%
    22:00 +25°C° 0 mm 3 mps 759 mmHg 95%
    23:00 +25°C° 0 mm 2 mps 759 mmHg 96%
    Show more